This demonstration page uses our WeatherBlox Daily Observations layout. Learn more.

Left ArrowRight Arrow

40.92501, -98.34201

Hourly Observations for May 5, 2020

Temp ( °F °C ) Dew Point ( °F °C ) Humidity (%) Winds ( mph kmh ) Pressure ( in mb ) Visibility ( mi km ) Precip ( " mm )
12:53 am 00:53 Clear 47 8.3 41 5 80 80 WNW 9 15 30.08 1019 10 16 0.00 0.00
1:53 am 01:53 Clear 45 7.2 40 4.4 83 83 W 7 11 30.08 1019 10 16 0.00 0.00
2:53 am 02:53 Clear 45 7.2 39 3.9 80 80 WNW 12 19 30.07 1018 10 16 0.00 0.00
3:53 am 03:53 Clear 45 7.2 39 3.9 80 80 WNW 13 20 30.08 1019 10 16 0.00 0.00
4:53 am 04:53 Clear 44 6.7 38 3.3 79 79 W 12 19 30.08 1019 10 16 0.00 0.00
5:53 am 05:53 Clear 44 6.7 38 3.3 79 79 W 10 17 30.08 1019 10 16 0.00 0.00
6:53 am 06:53 Sunny 44 6.7 38 3.3 79 79 W 10 17 30.10 1019 10 16 0.00 0.00
8:53 am 08:53 Sunny 54 12.2 39 3.9 57 57 WNW 16 26 30.12 1020 10 16 0.00 0.00
9:53 am 09:53 Sunny 59 15 40 4.4 49 49 NW 18 30 30.13 1020 10 16 0.00 0.00
10:53 am 10:53 Sunny 62 16.7 37 2.8 40 40 NW 21 33 30.13 1020 10 16 0.00 0.00
11:53 am 11:53 Sunny 65 18.3 34 1.1 32 32 WNW 25 41 30.14 1021 10 16 0.00 0.00
12:53 pm 12:53 Sunny 67 19.4 30 -1.1 25 25 NW 26 43 30.13 1020 10 16 0.00 0.00
1:53 pm 13:53 Sunny 67 19.4 27 -2.8 22 22 NW 24 39 30.13 1020 10 16 0.00 0.00
2:53 pm 14:53 Sunny 69 20.6 28 -2.2 22 22 NW 22 35 30.12 1020 10 16 0.00 0.00
3:53 pm 15:53 Mostly Sunny 69 20.6 29 -1.7 22 22 NNW 25 41 30.11 1020 10 16 0.00 0.00
4:53 pm 16:53 Mostly Sunny 66 18.9 28 -2.2 24 24 N 22 35 30.12 1020 10 16 0.00 0.00
5:53 pm 17:53 Sunny 66 18.9 29 -1.7 25 25 NNW 16 26 30.12 1020 10 16 0.00 0.00
6:53 pm 18:53 Sunny 65 18.3 29 -1.7 26 26 NNW 15 24 30.13 1020 10 16 0.00 0.00
7:53 pm 19:53 Mostly Cloudy 61 16.1 35 1.7 38 38 NNE 13 20 30.14 1021 10 16 0.00 0.00
8:53 pm 20:53 Clear 54 12.2 36 2.2 51 51 NNE 10 17 30.18 1022 10 16 0.00 0.00
9:53 pm 21:53 Cloudy 53 11.7 37 2.8 55 55 N 7 11 30.21 1023 10 16 0.00 0.00
10:53 pm 22:53 Cloudy 51 10.6 39 3.9 64 64 Calm 30.23 1024 10 16 0.00 0.00
11:53 pm 23:53 Mostly Cloudy 50 10 40 4.4 68 68 W 5 7 30.23 1024 10 16 0.00 0.00

Powered by AerisWeather